Regional Weather Roundup
Issued by NWS

Home | Current Version | Previous Version | Text Only | Print | Product List | Glossary Off
Versions: 1 2 3 4 5 6 7 8 9 10 11 12 13 14 15 16 17 18 19 20 21 22 23 24 25 26 27 28 29 30 31 32 33 34 35 36 37 38 39 40 41 42 43 44 45 46 47 48 49 50

849
ASUS45 KPSR 111410
RWRAZ

ARIZONA HOURLY REGIONAL WEATHER ROUNDUP
NATIONAL WEATHER SERVICE PHOENIX AZ
700 AM MST THU FEB 11 2016

NOTE: FAIR INDICATES FEW OR NO CLOUDS BELOW 12,000 FEET WITH NO
SIGNIFICANT WEATHER AND/OR OBSTRUCTIONS TO VISIBILITY.

AZZ001>003-036-111500-
NORTHWEST ARIZONA

CITY           SKY/WX    TMP DP  RH WIND       PRES   REMARKS
BULLHEAD CITY  CLEAR     54  28  37 N6        30.19S
KINGMAN        PTCLDY    32  32 100 CALM      30.26R
$$

AZZ004>008-015-016-018-111500-
NORTH CENTRAL ARIZONA

CITY           SKY/WX    TMP DP  RH WIND       PRES   REMARKS
GRAND CANYON   PTCLDY    20  15  81 CALM      30.39R
WILLIAMS       PTCLDY    27  16  63 S12       30.42S WCI  16
PRESCOTT       PTCLDY    29  19  66 S5        30.33R WCI  24
FLAGSTAFF      PTCLDY    18  13  80 CALM      30.40R
PAYSON         CLEAR     43  16  33 CALM      30.32R
PAGE           PTCLDY    33  28  81 E3        30.39R
$$

AZZ009>014-017-111500-
NORTHEAST ARIZONA

CITY           SKY/WX    TMP DP  RH WIND       PRES   REMARKS
WINSLOW        MOCLDY    19  14  81 CALM      30.39R
WINDOW ROCK    PTCLDY    23   0  36 CALM      30.40R
SHOW LOW       PTCLDY    23  12  63 CALM      30.38S HAZE
$$

AZZ023-111500-
GREATER PHOENIX AREA

CITY           SKY/WX    TMP DP  RH WIND       PRES   REMARKS
PHOENIX        PTCLDY    57  35  43 SE3       30.15R
BUCKEYE        CLEAR     46  28  49 NW3       30.17R
GLENDALE       CLEAR     52  32  46 NW5       30.17R
DEER VALLEY    CLEAR     51  30  44 CALM      30.16R
SCOTTSDALE     CLEAR     51  35  54 CALM      30.17R
MESA-GATEWAY   CLEAR     48  30  49 SE5       30.17S
CHANDLER       CLEAR     48  32  53 NE5       30.16S
$$

AZZ027-028-111500-
SOUTHWEST MARICOPA COUNTY AND PINAL COUNTY

CITY           SKY/WX    TMP DP  RH WIND       PRES   REMARKS
CASA GRANDE    CLEAR     48  25  40 CALM      30.17R
$$

AZZ503-504-507>509-111500-
SOUTHEAST ARIZONA

CITY           SKY/WX    TMP DP  RH WIND       PRES   REMARKS
TUCSON         CLEAR     47  22  37 SE13      30.22R
DAVIS-MONTHAN  CLEAR     49  20  32 S9        30.19S
RYAN FIELD     CLEAR     45  28  53 SE7       30.21R
NOGALES        CLEAR     35  19  52 CALM      30.24S
DOUGLAS        PTCLDY    28  14  55 NE7       30.27R WCI  21
SAFFORD        PTCLDY    34  21  59 SE3       30.25R
$$

AZZ020-021-025-026-031-111500-
SOUTHWEST ARIZONA

CITY           SKY/WX    TMP DP  RH WIND       PRES   REMARKS
YUMA           CLEAR     56  27  32 NE3       30.11R
$$

CAZ031-033-041-043-047-048-061-111500-
SOUTHERN CALIFORNIA

CITY           SKY/WX    TMP DP  RH WIND       PRES   REMARKS
DOWNTOWN L.A.  CLEAR     62  31  31 CALM      30.07S
L.A. AIRPORT   PTCLDY    61  32  33 NE3       30.07S
SAN DIEGO      CLEAR     58  35  42 CALM      30.08S
BURBANK        CLEAR     55  30  38 CALM      30.09R
ONTARIO        CLEAR     50  33  52 CALM      30.10S
RIVERSIDE      CLEAR     54  29  38 NE5       30.11S
PALM SPRINGS   CLEAR     57  27  31 NW7       30.14R
EL CENTRO NAS  PTCLDY    52  22  30 CALM      30.13R
IMPERIAL       CLEAR     49  27  42 SW6       30.10S
BLYTHE         CLEAR     52  25  35 SW3       30.15R
NEEDLES        CLEAR     50  26  39 W6        30.18R
$$

NVZ020-UTZ003-111500-
SOUTHERN NEVADA-UTAH

CITY           SKY/WX    TMP DP  RH WIND       PRES   REMARKS
LAS VEGAS      PTCLDY    47  26  44 CALM      30.22R
SALT LAKE CITY FOG       28  27  96 NE5       30.48R VSB 1/4 WCI  23
$$

NMZ009-TXZ055-111500-
NEW MEXICO-WEST TEXAS

CITY           SKY/WX    TMP DP  RH WIND       PRES   REMARKS
ALBUQUERQUE    CLOUDY    35  20  54 N8        30.34S WCI  29
EL PASO        MOCLDY    40  18  41 CALM      30.25S
$$


........................KEY........................
SKY/WX - SKY CONDITION/WEATHER
TMP    - TEMPERATURE IN FAHRENHEIT
DP     - DEW POINT IN FAHRENHEIT
RH     - RELATIVE HUMIDITY IN PERCENT
WIND   - DIRECTION AND SPEED IN MILES PER HOUR (MPH)
VRB    - VARIABLE WIND DIRECTION
PRES   - MEAN SEA LEVEL PRESSURE IN INCHES OF MERCURY
         F - FALLING PRESSURE   R - RISING PRESSURE
         S - STEADY PRESSURE
VSB    - VISIBILITY IN MILES
HX     - HEAT INDEX IN FAHRENHEIT
WCI    - WIND CHILL INDEX IN FAHRENHEIT
TC     - TEMPERATURE IN CELSIUS WHICH IS ALSO KNOWN AS
         TEMPERATURE IN CENTIGRADE
AFB    - AIR FORCE BASE
         LUKE AFB IS LUKE AIR FORCE BASE
         DAVIS-MONTHAN IS DAVIS-MONTHAN AIR FORCE BASE
NAS    - NAVAL AIR STATION
         EL CENTRO NAS IS EL CENTRO NAVAL AIR STATION
N/A    - NOT AVAILABLE





USA.gov is the U.S. government's official web portal to all federal, state and local government web resources and services.